FLOCK 2K-01 (42852 NORAD) Tracking and Keplerian Element Data

This shows tracking and keplerian element data for the satellite.

Feedback or suggestion? Click here.




ElementValue
Catalog42852
NameFLOCK 2K-01
Epoch Orbit15698
Epoch Day123.20673344
Epoch Year2020
RAAN353.5822
Inclination96.8999
Eccentricity0.001029
Argument of Perigee134.6346
Mean Anonmoly225.5742
Mean Motion15.40931262
Decay Rate4.94E-05
L11 42852U 17042AD 20123.20673344 .00004940 00000-0 12178-3 0 9991
L22 42852 96.8999 353.5822 0010290 134.6346 225.5742 15.40931262156989



Live tracking and technical data element details for FLOCK 2K-01 (NORAD 42852). FLOCK 2K-01 can be tracked NOW for your location showing map with azimuth and elevation plus other details from your city location.







IsCatalogInMostPopularTable: catalog: 42852, numindb: 688
Update: records affected: 1



GetName: 42852 FLOCK 2K-01

Hit Count: updated at: Sat, 17 May 2025 10:12:41 GMT